Weather History for Val-d'Or, QC

Change the Weather History Date:

Thursday, October 10, 2013

  Actual Average Record
Temperature  
Mean Temperature 58 °F -  
Max Temperature 71 °F 43 °F 73 °F (2003)
Min Temperature 45 °F 27 °F 23 °F (2000)
Degree Days  
Heating Degree Days 7    
Growing Degree Days 8 (Base 50)    
Moisture  
Dew Point 45 °F    
Average Humidity 66    
Maximum Humidity 93    
Minimum Humidity 30    
Precipitation  
Precipitation 0.00 in 0.11 in - ()
Sea Level Pressure  
Sea Level Pressure 30.21 in    
Wind  
Wind Speed 6 mph ()    
Max Wind Speed 10 mph    
Max Gust Speed -    
Visibility 13.2 miles    
Events      
Averages and records for this station are not official NWS values.
T = Trace of Precipitation, MM = Missing Value Source: Averaged Metar Reports

Daily Weather History Graph

Daily Weather History Graph

Search for Another Location

Airport:

Trip Planner

Search our weather history database for the weather conditions in past years. The results will help you decide how hot, cold, wet, or windy it might be!

Date:

Astronomy

Oct. 10, 2013 Rise Set
Actual Time 7:23 AM EDT 6:31 PM EDT
Civil Twilight 6:52 AM EDT 7:02 PM EDT
Nautical Twilight 6:16 AM EDT 7:38 PM EDT
Astronomical Twilight 5:40 AM EDT 8:14 PM EDT
Moon 1:30 PM EDT (10/10) 10:51 PM EDT (10/10)
Length of Visible Light 12h 10m
Length of Day
11h 08m
Waxing Crescent, 35% of the Moon is Illuminated
Oct 10
Waxing Crescent
Oct 11
First Quarter
Oct 18
Full
Oct 26
Last Quarter
Nov 3
New

Hourly Weather History & Observations

Time (EDT) Temp. Windchill Dew Point Humidity Pressure Visibility Wind Dir Wind Speed Gust Speed Precip Events Conditions
12:00 AM 53.6 °F - 42.8 °F 67% 30.22 in 9.0 mi SW 5.8 mph - N/A   Clear
1:00 AM 53.6 °F - 41.0 °F 62% 30.22 in 9.0 mi SSW 8.1 mph - N/A   Clear
2:00 AM 51 °F - 41 °F 59% 30.20 in - SSW 6.9 mph - -  
2:00 AM 51.8 °F - 41.0 °F 67% 30.23 in 9.0 mi SW 6.9 mph - N/A   Clear
3:00 AM 50.0 °F - 42.8 °F 76% 30.22 in 9.0 mi SSW 9.2 mph - N/A   Clear
4:00 AM 50.0 °F - 42.8 °F 76% 30.22 in 9.0 mi SW 9.2 mph - N/A   Clear
5:00 AM 49 °F - 43 °F 73% 30.21 in - SSW 4.6 mph - -  
5:00 AM 48.2 °F - 42.8 °F 82% 30.23 in 9.0 mi SSW 5.8 mph - N/A   Clear
6:00 AM 46.4 °F 43.5 °F 42.8 °F 87% 30.24 in 15.0 mi SW 5.8 mph - N/A   Clear
7:00 AM 46.4 °F 42.9 °F 42.8 °F 87% 30.25 in 15.0 mi SSW 6.9 mph - N/A   Partly Cloudy
8:00 AM 47 °F - 43 °F 81% 30.22 in - SSW 4.6 mph - -  
8:00 AM 46.4 °F 43.5 °F 44.6 °F 93% 30.25 in 15.0 mi SSW 5.8 mph - N/A   Partly Cloudy
9:00 AM 50.0 °F - 44.6 °F 82% 30.25 in 15.0 mi SSW 8.1 mph - N/A   Partly Cloudy
10:00 AM 55.4 °F - 46.4 °F 72% 30.25 in 15.0 mi SW 4.6 mph - N/A   Partly Cloudy
11:00 AM 61 °F - 47 °F 49% 30.21 in - SSW 4.6 mph - -  
11:00 AM 60.8 °F - 48.2 °F 63% 30.24 in 15.0 mi SSW 6.9 mph - N/A   Partly Cloudy
12:00 PM 64.4 °F - 48.2 °F 56% 30.22 in 15.0 mi SW 10.4 mph - N/A   Partly Cloudy
1:00 PM 68.0 °F - 46.4 °F 46% 30.22 in 15.0 mi West 8.1 mph - N/A   Partly Cloudy
2:00 PM 69 °F - 47 °F 34% 30.17 in - SSW 6.9 mph - -  
2:00 PM 69.8 °F - 48.2 °F 46% 30.20 in 15.0 mi SW 5.8 mph - N/A   Scattered Clouds
3:00 PM 71.6 °F - 46.4 °F 41% 30.19 in 15.0 mi SW 8.1 mph - N/A   Scattered Clouds
4:00 PM 69.8 °F - 46.4 °F 43% 30.19 in 15.0 mi SSW 8.1 mph - N/A   Scattered Clouds
5:00 PM 69 °F - 44 °F 30% 30.16 in - SW 6.9 mph - -  
5:00 PM 69.8 °F - 46.4 °F 43% 30.18 in 15.0 mi WSW 6.9 mph - N/A   Scattered Clouds
6:00 PM 68.0 °F - 48.2 °F 49% 30.19 in 15.0 mi West 2.3 mph - N/A   Scattered Clouds
7:00 PM 59.0 °F - 50.0 °F 72% 30.21 in 15.0 mi SSW 4.6 mph - N/A   Partly Cloudy
8:00 PM 54 °F - 48 °F 72% 30.19 in - South 3.5 mph - -  
8:00 PM 55.4 °F - 48.2 °F 77% 30.21 in 15.0 mi SSW 3.5 mph - N/A   Clear
9:00 PM 53.6 °F - 48.2 °F 82% 30.22 in 15.0 mi SW 3.5 mph - N/A   Clear
10:00 PM 50.0 °F - 46.4 °F 87% 30.22 in 15.0 mi SSW 4.6 mph - N/A   Partly Cloudy
11:00 PM 49 °F - 45 °F 81% 30.18 in - South 3.5 mph - -  
11:00 PM 50.0 °F - 46.4 °F 87% 30.21 in 9.0 mi South 3.5 mph - N/A   Clear